Погода в Уже

Россия / Брянская область     52°36′19″N   33°33′46″E
темп.,
°C
ветер,
м/с
пор.,
м/с
влажн.,
%
обл.,
%
осадки,
мм/ч
давл.,
гПа
погр.,
м
22 апреля, чт
чт2200:00+5ю4992100 0.0 1014242
03:00+6ю51185100 0.0 1014326
06:00+5ю389475 0.0 1014207
09:00+9ююз577648 0.0 1015400
12:00+13ююз68635 0.0 1015976
15:00+15ююз795255 1.1 10141806
18:00+14юз6106531 1.6 10141092
21:00+9ю4108251 1.7 1015193
23 апреля, пт
пт2300:00+8ю499098 1.5 1015219
03:00+8ю6158783 2.1 1014449
06:00+7ююз6148996 0.3 1014482
09:00+8зюз5791100 0.6 1014835
12:00+7зсз3582100 4.3 1015752
15:00+11з4653100 4.3 10141805
18:00+8з3563100 0.1 10141030
21:00+6зюз3569100 0.1 101494
24 апреля, сб
сб2400:00+5з367699 0.0 1014123
03:00+2зюз37865 0.0 1013168
06:00+1зюз4118794 0.0 1013346
09:00+4з796842 0.1 10131156
12:00+6з8951100 1.0 10132145
15:00+2з91493100 2.4 10141107
18:00+5зсз8127115 0.9 10151307
21:00+1з310840 0.9 1017233
25 апреля, вс
вс2500:00+1зюз512795 0.0 1016318
03:00+1зюз5128378 0.0 1016341
06:000зюз4108695 0.0 1016308
09:00+4зюз6106979 0.0 10161220
12:00+7зюз81152100 0.6 10152084
15:00+7зюз81052100 1.3 10152028
18:00+7з585223 0.1 10151585
21:00+2з22715 0.1 101626
26 апреля, пн
пн2600:00+1юз22745 0.0 101626
03:00+1юз347469 0.0 101678
06:000юз3578100 0.1 1015129
09:00+5юз466145 0.2 1014710
12:00+7зюз4552100 1.7 10131639
15:00+7зюз6658100 2.6 10121417
18:00+6зсз4667100 1.9 10121141
21:00+2з387990 2.3 1012177